Time,TemperatureF,DewpointF,PressureIn,WindDirection,WindDirectionDegrees,WindSpeedMPH,WindSpeedGustMPH,Humidity,HourlyPrecipIn,Conditions,Clouds,dailyrainin,SoftwareType,DateUTC
2013-03-08 00:02:00,31.0,26.0,30.38,WNW,299,0.0,0.0,80,0.00,,,0.00,,2013-03-08 05:02:00,
2013-03-08 00:12:00,31.0,26.0,30.38,WNW,299,0.0,0.0,80,0.00,,,0.00,,2013-03-08 05:12:00,
2013-03-08 00:22:00,30.0,25.0,30.38,WNW,300,0.0,1.0,82,0.00,,,0.00,,2013-03-08 05:22:00,
2013-03-08 00:32:00,30.0,25.0,30.38,WNW,299,0.0,0.0,82,0.00,,,0.00,,2013-03-08 05:32:00,
2013-03-08 00:42:00,30.0,25.0,30.38,WNW,299,0.0,0.0,82,0.00,,,0.00,,2013-03-08 05:42:00,
2013-03-08 00:52:00,30.0,25.0,30.37,WNW,299,0.0,1.0,83,0.00,,,0.00,,2013-03-08 05:52:00,
2013-03-08 01:01:00,29.0,25.0,30.37,WNW,299,0.0,2.0,83,0.00,,,0.00,,2013-03-08 06:01:00,
2013-03-08 01:11:00,29.0,25.0,30.37,WNW,299,0.0,2.0,83,0.00,,,0.00,,2013-03-08 06:11:00,
2013-03-08 01:22:00,29.0,25.0,30.37,WNW,300,0.0,0.0,84,0.00,,,0.00,,2013-03-08 06:22:00,
2013-03-08 01:32:00,29.0,25.0,30.38,WNW,299,1.0,2.0,84,0.00,,,0.00,,2013-03-08 06:32:00,
2013-03-08 01:42:00,29.0,25.0,30.38,WNW,299,1.0,2.0,84,0.00,,,0.00,,2013-03-08 06:42:00,
2013-03-08 01:52:00,29.0,25.0,30.39,WNW,299,0.0,0.0,85,0.00,,,0.00,,2013-03-08 06:52:00,
2013-03-08 02:01:00,29.0,25.0,30.39,WNW,300,0.0,0.0,85,0.00,,,0.00,,2013-03-08 07:01:00,
2013-03-08 02:11:00,29.0,25.0,30.39,WNW,300,0.0,0.0,85,0.00,,,0.00,,2013-03-08 07:11:00,
2013-03-08 02:22:00,29.0,25.0,30.39,WNW,300,0.0,0.0,86,0.00,,,0.00,,2013-03-08 07:22:00,
2013-03-08 02:32:00,28.0,24.0,30.39,WNW,300,0.0,0.0,86,0.00,,,0.00,,2013-03-08 07:32:00,
2013-03-08 02:42:00,28.0,24.0,30.39,WNW,300,0.0,0.0,86,0.00,,,0.00,,2013-03-08 07:42:00,
2013-03-08 02:52:00,28.0,24.0,30.40,WNW,300,0.0,0.0,86,0.00,,,0.00,,2013-03-08 07:52:00,
2013-03-08 03:01:00,28.0,24.0,30.40,WNW,300,0.0,1.0,86,0.00,,,0.00,,2013-03-08 08:01:00,
2013-03-08 03:11:00,28.0,24.0,30.40,WNW,300,0.0,1.0,86,0.00,,,0.00,,2013-03-08 08:11:00,
2013-03-08 03:22:00,28.0,24.0,30.40,WNW,299,0.0,1.0,86,0.00,,,0.00,,2013-03-08 08:22:00,
2013-03-08 03:32:00,28.0,24.0,30.40,WNW,300,0.0,0.0,85,0.00,,,0.00,,2013-03-08 08:32:00,
2013-03-08 03:42:00,28.0,24.0,30.40,WNW,300,0.0,0.0,85,0.00,,,0.00,,2013-03-08 08:42:00,
2013-03-08 03:52:00,28.0,24.0,30.41,WNW,300,0.0,0.0,85,0.00,,,0.00,,2013-03-08 08:52:00,
2013-03-08 04:03:00,27.0,23.0,30.42,WNW,299,0.0,0.0,85,0.00,,,0.00,,2013-03-08 09:03:00,
2013-03-08 04:11:00,27.0,23.0,30.42,WNW,299,0.0,0.0,85,0.00,,,0.00,,2013-03-08 09:11:00,
2013-03-08 04:21:00,27.0,23.0,30.42,WNW,299,0.0,0.0,84,0.00,,,0.00,,2013-03-08 09:21:00,
2013-03-08 04:32:00,27.0,23.0,30.42,WNW,300,0.0,0.0,83,0.00,,,0.00,,2013-03-08 09:32:00,
2013-03-08 04:42:00,27.0,23.0,30.42,WNW,300,0.0,0.0,83,0.00,,,0.00,,2013-03-08 09:42:00,
2013-03-08 04:52:00,27.0,23.0,30.42,WNW,300,0.0,0.0,84,0.00,,,0.00,,2013-03-08 09:52:00,
2013-03-08 05:01:00,27.0,23.0,30.42,WNW,299,0.0,0.0,84,0.00,,,0.00,,2013-03-08 10:01:00,
2013-03-08 05:11:00,27.0,23.0,30.42,WNW,299,0.0,0.0,84,0.00,,,0.00,,2013-03-08 10:11:00,
2013-03-08 05:21:00,27.0,23.0,30.43,WNW,300,0.0,0.0,85,0.00,,,0.00,,2013-03-08 10:21:00,
2013-03-08 05:32:00,27.0,23.0,30.43,WNW,299,0.0,0.0,85,0.00,,,0.00,,2013-03-08 10:32:00,
2013-03-08 05:42:00,27.0,23.0,30.43,WNW,299,0.0,0.0,85,0.00,,,0.00,,2013-03-08 10:42:00,
2013-03-08 05:52:00,27.0,23.0,30.45,WNW,300,0.0,0.0,85,0.00,,,0.00,,2013-03-08 10:52:00,
2013-03-08 06:01:00,26.0,22.0,30.46,WNW,300,0.0,0.0,85,0.00,,,0.00,,2013-03-08 11:01:00,
2013-03-08 06:11:00,26.0,22.0,30.46,WNW,300,0.0,0.0,85,0.00,,,0.00,,2013-03-08 11:11:00,
2013-03-08 06:21:00,26.0,22.0,30.47,WNW,300,0.0,0.0,86,0.00,,,0.00,,2013-03-08 11:21:00,
2013-03-08 06:32:00,26.0,22.0,30.47,WNW,299,0.0,0.0,86,0.00,,,0.00,,2013-03-08 11:32:00,
2013-03-08 06:42:00,26.0,22.0,30.47,WNW,299,0.0,0.0,86,0.00,,,0.00,,2013-03-08 11:42:00,
2013-03-08 06:52:00,26.0,23.0,30.49,WNW,299,0.0,0.0,87,0.00,,,0.00,,2013-03-08 11:52:00,
2013-03-08 07:02:00,26.0,23.0,30.49,WNW,300,0.0,0.0,88,0.00,,,0.00,,2013-03-08 12:02:00,
2013-03-08 07:11:00,26.0,23.0,30.49,WNW,300,0.0,0.0,88,0.00,,,0.00,,2013-03-08 12:11:00,
2013-03-08 07:22:00,26.0,23.0,30.50,WNW,299,0.0,0.0,88,0.00,,,0.00,,2013-03-08 12:22:00,
2013-03-08 07:32:00,26.0,23.0,30.50,WNW,299,0.0,0.0,89,0.00,,,0.00,,2013-03-08 12:32:00,
2013-03-08 07:43:00,26.0,23.0,30.50,WNW,299,0.0,0.0,89,0.00,,,0.00,,2013-03-08 12:43:00,
2013-03-08 07:53:00,26.0,23.0,30.51,WNW,300,0.0,0.0,89,0.00,,,0.00,,2013-03-08 12:53:00,
2013-03-08 08:01:00,26.0,23.0,30.51,WNW,299,0.0,0.0,90,0.00,,,0.00,,2013-03-08 13:01:00,
2013-03-08 08:11:00,26.0,23.0,30.51,WNW,299,0.0,0.0,90,0.00,,,0.00,,2013-03-08 13:11:00,
2013-03-08 08:22:00,26.0,24.0,30.52,WNW,299,0.0,0.0,91,0.00,,,0.00,,2013-03-08 13:22:00,
2013-03-08 08:32:00,27.0,25.0,30.51,WNW,300,0.0,0.0,91,0.00,,,0.00,,2013-03-08 13:32:00,
2013-03-08 08:42:00,27.0,25.0,30.51,WNW,300,0.0,0.0,91,0.00,,,0.00,,2013-03-08 13:42:00,
2013-03-08 08:52:00,28.0,26.0,30.52,WNW,300,0.0,1.0,92,0.00,,,0.00,,2013-03-08 13:52:00,
2013-03-08 09:02:00,29.0,27.0,30.52,WNW,299,0.0,1.0,93,0.00,,,0.00,,2013-03-08 14:02:00,
2013-03-08 09:11:00,29.0,27.0,30.52,WNW,299,0.0,1.0,93,0.00,,,0.00,,2013-03-08 14:11:00,
2013-03-08 09:22:00,33.0,30.0,30.52,East,87,0.0,2.0,88,0.00,,,0.00,,2013-03-08 14:22:00,
2013-03-08 09:32:00,34.0,30.0,30.51,SE,126,1.0,2.0,84,0.00,,,0.00,,2013-03-08 14:32:00,
2013-03-08 09:42:00,34.0,30.0,30.51,SE,126,1.0,2.0,84,0.00,,,0.00,,2013-03-08 14:42:00,
2013-03-08 09:53:00,37.0,30.0,30.52,ESE,115,1.0,2.0,76,0.00,,,0.00,,2013-03-08 14:53:00,
2013-03-08 10:03:00,39.0,31.0,30.51,ENE,68,0.0,2.0,74,0.00,,,0.00,,2013-03-08 15:03:00,
2013-03-08 10:12:00,41.0,31.0,30.50,ENE,75,0.0,1.0,67,0.00,,,0.00,,2013-03-08 15:12:00,
2013-03-08 10:22:00,41.0,31.0,30.50,ENE,75,0.0,1.0,67,0.00,,,0.00,,2013-03-08 15:22:00,
2013-03-08 10:32:00,42.0,31.0,30.50,East,88,0.0,2.0,64,0.00,,,0.00,,2013-03-08 15:32:00,
2013-03-08 10:42:00,42.0,31.0,30.50,East,88,0.0,2.0,64,0.00,,,0.00,,2013-03-08 15:42:00,
2013-03-08 10:53:00,46.0,33.0,30.49,ESE,113,1.0,3.0,60,0.00,,,0.00,,2013-03-08 15:53:00,
2013-03-08 11:01:00,48.0,33.0,30.48,ESE,118,0.0,2.0,55,0.00,,,0.00,,2013-03-08 16:01:00,
2013-03-08 11:11:00,48.0,33.0,30.48,ESE,118,0.0,2.0,55,0.00,,,0.00,,2013-03-08 16:11:00,
2013-03-08 11:22:00,51.0,32.0,30.48,SE,132,1.0,3.0,48,0.00,,,0.00,,2013-03-08 16:22:00,
2013-03-08 11:32:00,53.0,32.0,30.47,ESE,107,1.0,3.0,44,0.00,,,0.00,,2013-03-08 16:32:00,
2013-03-08 11:42:00,53.0,32.0,30.47,ESE,107,1.0,3.0,44,0.00,,,0.00,,2013-03-08 16:42:00,
2013-03-08 11:52:00,56.0,28.0,30.45,ESE,120,1.0,3.0,34,0.00,,,0.00,,2013-03-08 16:52:00,
2013-03-08 12:03:00,58.0,23.0,30.45,SW,234,1.0,6.0,26,0.00,,,0.00,,2013-03-08 17:03:00,
2013-03-08 12:11:00,58.0,23.0,30.45,SW,234,1.0,6.0,26,0.00,,,0.00,,2013-03-08 17:11:00,
2013-03-08 12:21:00,59.0,25.0,30.44,SSE,156,0.0,3.0,27,0.00,,,0.00,,2013-03-08 17:21:00,
2013-03-08 12:32:00,61.0,22.0,30.43,SW,226,3.0,5.0,22,0.00,,,0.00,,2013-03-08 17:32:00,
2013-03-08 12:42:00,61.0,22.0,30.43,SW,226,3.0,5.0,22,0.00,,,0.00,,2013-03-08 17:42:00,
2013-03-08 12:52:00,64.0,20.0,30.42,West,265,2.0,6.0,18,0.00,,,0.00,,2013-03-08 17:52:00,
2013-03-08 13:02:00,66.0,24.0,30.42,North,356,2.0,6.0,20,0.00,,,0.00,,2013-03-08 18:02:00,
2013-03-08 13:11:00,66.0,24.0,30.42,North,356,2.0,6.0,20,0.00,,,0.00,,2013-03-08 18:11:00,
2013-03-08 13:21:00,68.0,27.0,30.41,West,268,4.0,6.0,21,0.00,,,0.00,,2013-03-08 18:21:00,
2013-03-08 13:32:00,68.0,27.0,30.40,WNW,290,3.0,7.0,21,0.00,,,0.00,,2013-03-08 18:32:00,
2013-03-08 13:42:00,68.0,27.0,30.40,WNW,290,3.0,7.0,21,0.00,,,0.00,,2013-03-08 18:42:00,
2013-03-08 13:52:00,69.0,25.0,30.39,West,271,3.0,6.0,19,0.00,,,0.00,,2013-03-08 18:52:00,
2013-03-08 14:01:00,70.0,26.0,30.38,West,279,3.0,5.0,19,0.00,,,0.00,,2013-03-08 19:01:00,
2013-03-08 14:11:00,70.0,26.0,30.38,West,279,3.0,5.0,19,0.00,,,0.00,,2013-03-08 19:11:00,
2013-03-08 14:22:00,68.0,23.0,30.37,WNW,289,5.0,10.0,18,0.00,,,0.00,,2013-03-08 19:22:00,
2013-03-08 14:32:00,67.0,22.0,30.37,West,273,4.0,7.0,18,0.00,,,0.00,,2013-03-08 19:32:00,
2013-03-08 14:42:00,67.0,22.0,30.37,West,273,4.0,7.0,18,0.00,,,0.00,,2013-03-08 19:42:00,
2013-03-08 14:52:00,67.0,25.0,30.37,NW,315,2.0,6.0,20,0.00,,,0.00,,2013-03-08 19:52:00,
2013-03-08 15:01:00,67.0,25.0,30.36,North,0,2.0,7.0,20,0.00,,,0.00,,2013-03-08 20:01:00,
2013-03-08 15:11:00,67.0,25.0,30.36,North,0,2.0,7.0,20,0.00,,,0.00,,2013-03-08 20:11:00,
2013-03-08 15:22:00,67.0,26.0,30.35,WNW,303,3.0,12.0,21,0.00,,,0.00,,2013-03-08 20:22:00,
2013-03-08 15:32:00,66.0,24.0,30.34,West,267,3.0,12.0,20,0.00,,,0.00,,2013-03-08 20:32:00,
2013-03-08 15:42:00,66.0,24.0,30.34,West,267,3.0,12.0,20,0.00,,,0.00,,2013-03-08 20:42:00,
2013-03-08 15:53:00,66.0,26.0,30.35,ESE,110,1.0,6.0,22,0.00,,,0.00,,2013-03-08 20:53:00,
2013-03-08 16:02:00,66.0,25.0,30.35,NW,306,2.0,3.0,21,0.00,,,0.00,,2013-03-08 21:02:00,
2013-03-08 16:11:00,66.0,25.0,30.35,NW,306,2.0,3.0,21,0.00,,,0.00,,2013-03-08 21:11:00,
2013-03-08 16:22:00,67.0,25.0,30.35,NW,318,0.0,3.0,20,0.00,,,0.00,,2013-03-08 21:22:00,
2013-03-08 16:32:00,67.0,25.0,30.35,East,100,0.0,3.0,20,0.00,,,0.00,,2013-03-08 21:32:00,
2013-03-08 16:42:00,67.0,25.0,30.35,East,100,0.0,3.0,20,0.00,,,0.00,,2013-03-08 21:42:00,
2013-03-08 16:52:00,66.0,25.0,30.35,NE,50,1.0,3.0,21,0.00,,,0.00,,2013-03-08 21:52:00,
2013-03-08 17:01:00,66.0,25.0,30.35,NW,313,1.0,5.0,21,0.00,,,0.00,,2013-03-08 22:01:00,
2013-03-08 17:11:00,66.0,25.0,30.35,NW,313,1.0,5.0,21,0.00,,,0.00,,2013-03-08 22:11:00,
2013-03-08 17:22:00,65.0,24.0,30.35,NNE,13,1.0,3.0,21,0.00,,,0.00,,2013-03-08 22:22:00,
2013-03-08 17:32:00,65.0,25.0,30.35,West,280,2.0,3.0,22,0.00,,,0.00,,2013-03-08 22:32:00,
2013-03-08 17:42:00,65.0,25.0,30.35,West,280,2.0,3.0,22,0.00,,,0.00,,2013-03-08 22:42:00,
2013-03-08 17:53:00,64.0,26.0,30.36,WNW,287,0.0,3.0,24,0.00,,,0.00,,2013-03-08 22:53:00,
2013-03-08 18:01:00,64.0,27.0,30.36,West,279,2.0,3.0,25,0.00,,,0.00,,2013-03-08 23:01:00,
2013-03-08 18:12:00,64.0,27.0,30.36,West,279,2.0,3.0,25,0.00,,,0.00,,2013-03-08 23:12:00,
2013-03-08 18:22:00,62.0,27.0,30.37,WNW,287,1.0,3.0,26,0.00,,,0.00,,2013-03-08 23:22:00,
2013-03-08 18:32:00,61.0,27.0,30.37,WNW,290,1.0,3.0,27,0.00,,,0.00,,2013-03-08 23:32:00,
2013-03-08 18:42:00,61.0,27.0,30.37,WNW,290,1.0,3.0,27,0.00,,,0.00,,2013-03-08 23:42:00,
2013-03-08 18:53:00,58.0,29.0,30.38,WSW,251,1.0,3.0,33,0.00,,,0.00,,2013-03-08 23:53:00,
2013-03-08 19:02:00,57.0,30.0,30.38,WSW,253,0.0,2.0,35,0.00,,,0.00,,2013-03-09 00:02:00,
2013-03-08 19:11:00,57.0,30.0,30.38,WSW,253,0.0,2.0,35,0.00,,,0.00,,2013-03-09 00:11:00,
2013-03-08 19:22:00,55.0,30.0,30.39,WSW,253,0.0,1.0,38,0.00,,,0.00,,2013-03-09 00:22:00,
2013-03-08 19:32:00,54.0,31.0,30.38,WSW,253,0.0,0.0,41,0.00,,,0.00,,2013-03-09 00:32:00,
2013-03-08 19:42:00,54.0,31.0,30.38,WSW,253,0.0,0.0,41,0.00,,,0.00,,2013-03-09 00:42:00,
2013-03-08 19:52:00,51.0,31.0,30.40,WSW,253,0.0,0.0,47,0.00,,,0.00,,2013-03-09 00:52:00,
2013-03-08 20:01:00,50.0,31.0,30.41,WSW,253,0.0,0.0,48,0.00,,,0.00,,2013-03-09 01:01:00,
2013-03-08 20:12:00,47.0,31.0,30.42,WSW,253,0.0,0.0,53,0.00,,,0.00,,2013-03-09 01:12:00,
2013-03-08 20:22:00,47.0,31.0,30.42,WSW,253,0.0,0.0,53,0.00,,,0.00,,2013-03-09 01:22:00,
2013-03-08 20:32:00,46.0,30.0,30.43,WSW,253,0.0,1.0,54,0.00,,,0.00,,2013-03-09 01:32:00,
2013-03-08 20:42:00,46.0,30.0,30.43,WSW,253,0.0,1.0,54,0.00,,,0.00,,2013-03-09 01:42:00,
2013-03-08 20:52:00,45.0,31.0,30.41,WSW,253,0.0,0.0,58,0.00,,,0.00,,2013-03-09 01:52:00,
2013-03-08 21:01:00,44.0,31.0,30.41,WSW,253,0.0,0.0,60,0.00,,,0.00,,2013-03-09 02:01:00,
2013-03-08 21:11:00,44.0,31.0,30.41,WSW,253,0.0,0.0,60,0.00,,,0.00,,2013-03-09 02:11:00,
2013-03-08 21:21:00,42.0,30.0,30.42,WSW,253,0.0,0.0,61,0.00,,,0.00,,2013-03-09 02:21:00,
2013-03-08 21:31:00,41.0,29.0,30.42,WSW,253,0.0,0.0,63,0.00,,,0.00,,2013-03-09 02:31:00,
2013-03-08 21:41:00,40.0,30.0,30.41,WSW,253,0.0,0.0,66,0.00,,,0.00,,2013-03-09 02:41:00,
2013-03-08 21:51:00,40.0,30.0,30.41,WSW,253,0.0,0.0,66,0.00,,,0.00,,2013-03-09 02:51:00,
2013-03-08 22:01:00,40.0,30.0,30.41,WSW,253,0.0,1.0,66,0.00,,,0.00,,2013-03-09 03:01:00,
2013-03-08 22:11:00,40.0,30.0,30.41,WSW,253,0.0,1.0,66,0.00,,,0.00,,2013-03-09 03:11:00,
2013-03-08 22:21:00,39.0,28.0,30.42,WSW,253,0.0,0.0,65,0.00,,,0.00,,2013-03-09 03:21:00,
2013-03-08 22:31:00,38.0,28.0,30.42,WSW,253,0.0,0.0,67,0.00,,,0.00,,2013-03-09 03:31:00,
2013-03-08 22:41:00,38.0,28.0,30.42,WSW,253,0.0,0.0,67,0.00,,,0.00,,2013-03-09 03:41:00,
2013-03-08 22:52:00,37.0,27.0,30.40,WSW,253,0.0,1.0,68,0.00,,,0.00,,2013-03-09 03:52:00,
2013-03-08 23:01:00,37.0,27.0,30.41,WSW,253,0.0,1.0,68,0.00,,,0.00,,2013-03-09 04:01:00,
2013-03-08 23:11:00,37.0,27.0,30.41,WSW,253,0.0,1.0,68,0.00,,,0.00,,2013-03-09 04:11:00,
2013-03-08 23:22:00,36.0,27.0,30.41,WSW,253,0.0,0.0,69,0.00,,,0.00,,2013-03-09 04:22:00,
2013-03-08 23:32:00,36.0,27.0,30.41,WSW,253,0.0,0.0,70,0.00,,,0.00,,2013-03-09 04:32:00,
2013-03-08 23:42:00,36.0,27.0,30.41,WSW,253,0.0,0.0,70,0.00,,,0.00,,2013-03-09 04:42:00,
2013-03-08 23:52:00,35.0,27.0,30.40,WSW,253,0.0,1.0,72,0.00,,,0.00,,2013-03-09 04:52:00,